FENGYUN 1C DEB, 30679

Orbit data source: Space-Track

FENGYUN 1C DEB, 30679 is space debris in SSO originally from a launch on Mon, 10 May 1999 UTC launched from the Taiyaun Space Center, China (TSC). Fengyun 1C debris stems from the Chinese weather satellite Fengyun-1C, which was intentionally destroyed by a Chinese anti-satellite missile in 2007. This event dramatically increased the amount of space debris, with thousands of trackable fragments posing hazards to satellites and human spaceflight. The Fengyun 1C debris cloud has become a focal point in discussions about space sustainability and the need for international regulations to prevent the creation of new debris.

Loading next visibility...
Identifier
30679, 1999-025AQM
Orbit
SSO
Country
Flag of CNCN / PRC
Related business
Manufacturer
Unknown
Mission
Spacecraft
Bus & Motor
Unknown
Mass
Unknown
Launch date (UTC)
1999-05-10 (27 years ago)
Launch vehicle
Unknown
Launch site
Taiyaun Space Center, China (TSC)
Object type
Payload
Rocket body
Debris
Shape & HBR
Unknown shape, 0.1 m
Radar Cross Section
Small (<0.1 m²)

Expand to show TLE details & history
Last TLE update: 2 days ago

TLE from 2 days ago
0 FENGYUN 1C DEB
1 30679U 99025AQM 26206.39533900  .00000607  00000-0  56228-3 0  9997
2 30679  99.3580 260.9516 0171005 204.4646 168.2487 13.80010590976184
Epoch: 2026-07-25T09:29Z
TLE epoch observation values (Epoch: 2026-07-25T09:29:17.289Z)
Latitude
12.89064°
Longitude
173.37095°
Altitude
1,088.968 km
Speed
7.247 km/s
True Right ascension
17h 15m 12s
True Declination
12° 49' 10"
Sunlit
Object was in full shadow at epoch
Visualization orbit readout
Latitude
Unknown
Longitude
Unknown
Altitude
Unknown
Speed
Unknown
Apparent Right ascension
Unknown
Apparent Declination
Unknown
Sunlit
N/A
Visualization observer readout
Local Sidereal Time
20:05:13
Azimuth
Unknown
Elevation
Unknown
Doppler factor
Unknown
Orbital elements
Apogee altitude
1,086.596 km
Perigee altitude
835.587 km
Semi-major axis
7,339.229 km
Eccentricity
0.0171
Inclination
99.358°
RAAN
260.9516°
Arg. of periapsis
204.4646°
True anomaly
168.6396°
Mean anomaly
168.2487°
Eccentric anomaly
168.44496°
Mean motion
3.45197 °/min
Orbital period
104.29 mins
BSTAR
0.00056228
Loading maneuver chart data...
Computing Atmospheric mass density...

Documentation

Showing up to 5 results
|